Regional Weather Roundup
Issued by NWS Nashville, TN

Home | Current Version | Previous Version | Text Only | Print | Product List | Glossary On
Versions: 1 2 3 4 5 6 7 8 9 10 11 12 13 14 15 16 17 18 19 20 21 22 23 24 25 26 27 28 29 30 31 32 33 34 35 36 37 38 39 40 41 42 43 44 45 46 47 48
000
ASUS44 KOHX 051310
RWROHX
MIDDLE TENNESSEE HOURLY WEATHER ROUNDUP
NATIONAL WEATHER SERVICE NASHVILLE TN
800 AM CDT SUN JUL 05 2015

NOTE: "FAIR" INDICATES FEW OR NO CLOUDS BELOW 12,000 FEET WITH
NO SIGNIFICANT WEATHER AND/OR OBSTRUCTIONS TO VISIBILITY.

* THESE REPORTS ARE NOT UNDER NWS QUALITY CONTROL AND MAY NOT
  REPORT WEATHER SUCH AS PRECIPITATION AND FOG.


TNZ005>011-023>034-057-059-062>066-078-080-051400
...NORTHERN MIDDLE TENNESSEE...

CITY           SKY/WX    TMP DP  RH WIND       PRES   REMARKS
CLARKSVILLE    CLOUDY    71  69  93 SW5       30.08R FOG
CROSSVILLE     CLOUDY    68  64  87 W6        30.10S
GALLATIN         N/A     70  32  24 NW6       30.10R
DICKSON          N/A     70  70 100 CALM      30.09S
NASHVILLE      LGT RAIN  71  71 100 W6        30.09R FOG
PORTLAND       CLOUDY   N/A N/A N/A NE3       30.11R
ROCKWOOD       CLOUDY    67  66  96 W5        30.09
SMYRNA         CLOUDY    71  70  97 W5        30.10R FOG
SPARTA         CLOUDY    70  70 100 NW32G101  30.08R
$$
TNZ056-058-060-061-075>077-079-093>097-051400
...SOUTHERN MIDDLE TENNESSEE...

CITY           SKY/WX    TMP DP  RH WIND       PRES   REMARKS
COLUMBIA       CLOUDY    72  72 100 NW3       30.09S
MCMINNVILLE    CLOUDY    68  68 100 CALM      30.10R
SHELBYVILLE    CLOUDY    72  70  94 W6          N/A
TULLAHOMA      CLOUDY    66  66 100 W7        30.12R
WINCHESTER     CLOUDY    66  66 100 W6        30.12R
$$


...KEY TO REMARKS...
VSB - VISIBILITY IN MILES
WCI - WIND CHILL INDEX
HX  - HEAT INDEX




USA.gov is the U.S. government's official web portal to all federal, state and local government web resources and services.